This demonstration page uses our WeatherBlox Daily Observations layout. Learn more.

Left ArrowRight Arrow

Hourly Observations for May 4, 2019

Temp ( °F °C ) Dew Point ( °F °C ) Humidity (%) Winds ( mph kmh ) Pressure ( in mb ) Visibility ( mi km ) Precip ( " mm )
12:15 am 00:15 Mostly Cloudy 50 10 48 8.9 93 93 SE 7 11 29.99 1016 10 16 N/A
12:35 am 00:35 Partly Cloudy 48 8.8 47 8.2 96 96 SE 3 6 30.00 1016 10 16 N/A
12:55 am 00:55 Mostly Cloudy 47 8.6 47 8.1 97 97 SE 3 6 30.01 1016 10 16 N/A
1:15 am 01:15 Partly Cloudy 47 8.5 47 8.3 99 99 N N/A 30.02 1016 10 16 N/A
1:35 am 01:35 Partly Cloudy 47 8.4 47 8.1 98 98 SSE 5 7 30.02 1016 10 16 N/A
1:55 am 01:55 Mostly Cloudy 46 8 46 7.7 98 98 SSE 5 7 30.02 1017 10 16 N/A
2:15 am 02:15 Partly Cloudy 47 8.1 46 8 99 99 SSE 5 7 30.01 1016 10 16 N/A
2:35 am 02:35 Partly Cloudy 46 7.7 46 7.6 99 99 SSE 6 9 30.01 1016 10 16 N/A
2:55 am 02:55 Mostly Cloudy 46 7.5 46 7.5 100 100 N N/A 30.02 1016 10 16 N/A
3:15 am 03:15 Partly Cloudy 46 7.6 46 7.6 100 100 S 3 6 30.01 1016 10 16 N/A
3:35 am 03:35 Clear 46 8 46 8 100 100 SSW 3 6 30.00 1016 10 16 N/A
3:55 am 03:55 Clear 47 8.6 47 8.6 100 100 S 5 7 30.00 1016 10 16 N/A
4:15 am 04:15 Clear 48 8.7 48 8.7 100 100 SSW 7 11 30.00 1016 10 16 N/A
4:35 am 04:35 Clear 48 8.7 48 8.7 100 100 SSW 8 13 30.00 1016 10 16 N/A
4:55 am 04:55 Clear 47 8.5 47 8.5 100 100 S 5 7 30.01 1016 10 16 N/A
5:15 am 05:15 Clear 47 8.1 47 8.1 100 100 SSW 3 6 30.01 1016 10 16 N/A
5:35 am 05:35 Clear 46 8 46 8 100 100 SSW 5 7 30.01 1016 10 16 N/A
5:55 am 05:55 Clear 46 8 46 8 100 100 SW 6 9 30.01 1016 7 11 N/A
6:15 am 06:15 Clear 46 7.9 46 7.9 100 100 SW 3 6 30.02 1017 7 11 N/A
6:35 am 06:35 Sunny 47 8.1 47 8.1 100 100 SW 5 7 30.01 1016 7 11 N/A
6:55 am 06:55 Sunny 47 8.1 47 8.1 100 100 SSW 6 9 30.01 1016 7 11 N/A
7:15 am 07:15 Sunny 46 8 46 8 100 100 SSW 3 6 30.01 1016 7 11 N/A
7:35 am 07:35 Sunny 47 8.6 47 8.6 100 100 S 3 6 30.02 1016 10 16 N/A
7:55 am 07:55 Sunny 49 9.4 49 9.4 100 100 S 3 6 30.01 1016 10 16 N/A
8:15 am 08:15 Sunny 51 10.7 51 10.5 99 99 SSW 7 11 30.00 1016 10 16 N/A
8:35 am 08:35 Sunny 53 11.6 52 11.1 97 97 SSW 8 13 29.99 1016 10 16 N/A
8:55 am 08:55 Sunny 55 12.5 53 11.6 94 94 SW 8 13 29.98 1015 10 16 N/A
9:15 am 09:15 Sunny 56 13.4 53 11.9 91 91 SW 7 11 29.97 1015 10 16 N/A
9:35 am 09:35 Sunny 58 14.3 54 12.2 87 87 SW 9 15 29.97 1015 10 16 N/A
9:55 am 09:55 Sunny 59 15 54 12.2 83 83 SW 8 13 29.95 1014 10 16 N/A
10:15 am 10:15 Sunny 60 15.8 54 12.2 79 79 SW 7 11 29.94 1014 10 16 N/A
10:35 am 10:35 Sunny 63 17.1 54 12.3 74 74 SSW 8 13 29.92 1013 10 16 N/A
10:55 am 10:55 Sunny 64 17.7 54 12.2 70 70 SW 10 17 29.92 1013 10 16 N/A
11:15 am 11:15 Sunny 65 18.2 53 11.7 66 66 SW 12 19 29.90 1013 10 16 N/A
11:35 am 11:35 Sunny 66 19 52 11.3 61 61 SW 12 19 29.90 1012 10 16 N/A
11:55 am 11:55 Sunny 66 19.1 51 10.5 58 58 SSW 12 19 29.89 1012 10 16 N/A
12:15 pm 12:15 Sunny 67 19.6 51 10.3 55 55 SSW 16 26 29.88 1012 10 16 N/A
12:35 pm 12:35 Sunny 68 20.2 49 9.2 49 49 SSW 12 19 29.87 1011 10 16 N/A
12:55 pm 12:55 Sunny 68 20.2 47 8.3 46 46 S 18 30 29.86 1011 10 16 N/A
1:15 pm 13:15 Sunny 69 20.8 45 7.1 41 41 SSW 13 20 29.84 1011 10 16 N/A
1:35 pm 13:35 Sunny 70 21.2 45 7.2 41 41 S 17 28 29.83 1010 10 16 N/A
1:55 pm 13:55 Sunny 71 21.6 44 6.6 38 38 S 18 30 29.80 1009 10 16 N/A
2:15 pm 14:15 Sunny 72 22.1 44 6.4 36 36 SSW 17 28 29.79 1009 10 16 N/A
2:35 pm 14:35 Sunny 73 22.6 42 5.8 34 34 SSW 18 30 29.78 1008 10 16 N/A
2:55 pm 14:55 Sunny 73 22.5 43 6.2 35 35 S 22 35 29.76 1008 10 16 N/A
3:15 pm 15:15 Sunny 73 22.9 43 6.2 34 34 SSW 22 35 29.74 1007 10 16 N/A
3:35 pm 15:35 Sunny 74 23.1 44 6.9 35 35 S 25 41 29.73 1007 10 16 N/A
3:55 pm 15:55 Sunny 73 22.8 44 6.8 36 36 S 20 31 29.72 1007 10 16 N/A
4:15 pm 16:15 Sunny 73 22.6 46 7.5 38 38 S 22 35 29.72 1006 10 16 N/A
4:35 pm 16:35 Sunny with Nearby Thunderstorms 73 22.6 45 7.3 37 37 SSW 22 35 29.70 1006 10 16 N/A
4:55 pm 16:55 Sunny 72 22 45 7 38 38 SSW 22 35 29.70 1006 10 16 N/A
5:15 pm 17:15 Sunny 71 21.4 44 6.5 38 38 S 14 22 29.72 1006 10 16 N/A
5:35 pm 17:35 Partly Cloudy with Nearby Thunderstorms 70 20.9 44 6.8 40 40 WSW 18 30 29.74 1007 10 16 N/A
5:55 pm 17:55 Cloudy 65 18.1 47 8.2 53 53 WSW 10 17 29.76 1008 10 16 N/A
6:15 pm 18:15 Mostly Cloudy with Light Rain 63 17.2 49 9.3 60 60 SW 22 35 29.77 1008 10 16 N/A
6:35 pm 18:35 Partly Cloudy 63 17 48 8.8 59 59 SSE 13 20 29.75 1008 10 16 N/A
6:55 pm 18:55 Partly Cloudy 64 17.7 46 7.7 52 52 S 13 20 29.75 1007 10 16 N/A
7:15 pm 19:15 Partly Cloudy 63 17 48 8.8 59 59 SW 18 30 29.77 1008 10 16 N/A
7:35 pm 19:35 Mostly Cloudy 61 16 49 9.6 66 66 SSW 26 43 29.73 1007 10 16 N/A
7:55 pm 19:55 Mostly Cloudy with Thunderstorms 62 16.6 47 8.5 59 59 S 25 41 29.73 1007 10 16 N/A
8:15 pm 20:15 Sunny with Nearby Thunderstorms 58 14.5 51 10.5 77 77 S 17 28 29.75 1008 10 16 N/A
8:35 pm 20:35 Sunny with Nearby Thunderstorms 57 14 50 10 77 77 SSE 17 28 29.77 1008 10 16 N/A
8:55 pm 20:55 Clear with Thunderstorms 56 13.5 49 9.7 78 78 SSE 17 28 29.79 1009 10 16 N/A
9:15 pm 21:15 Clear 57 13.8 49 9.3 74 74 SSE 14 22 29.80 1009 10 16 N/A
9:35 pm 21:35 Clear 57 13.7 49 9.5 76 76 S 15 24 29.81 1009 10 16 N/A
9:55 pm 21:55 Clear 58 14.2 49 9.5 74 74 S 16 26 29.80 1009 10 16 N/A
10:15 pm 22:15 Clear 56 13.2 50 10 81 81 SSE 8 13 29.81 1010 10 16 N/A
10:35 pm 22:35 Clear 56 13.6 51 10.6 82 82 S 10 17 29.79 1009 10 16 N/A
10:55 pm 22:55 Clear 58 14.5 49 9.6 73 73 S 21 33 29.77 1008 10 16 N/A
11:15 pm 23:15 Clear 57 14 49 9.3 74 74 S 17 28 29.79 1009 10 16 N/A
11:35 pm 23:35 Clear 56 13.6 48 9 74 74 S 17 28 29.79 1009 10 16 N/A
11:55 pm 23:55 Clear 56 13.6 47 8.6 72 72 S 15 24 29.79 1009 10 16 N/A

Powered by AerisWeather